Terug naar catalogus

SCOUT B DEB

LostUNKNOWN
NORAD 29009·DEBRIS·🇺🇸 United States

Gelanceerd Aug 10, 1965 vanaf Wallops Flight Facility

Loading…

Volgende Passages (komende 24 uur)

TLE

VerouderdSource: Space-Track

Epoch: Jun 16, 2026, 04:06 UTC

1 29009U 65063P   26167.17149056 -.00000946  00000-0 -47749-2 0  9999
2 29009  69.2136 117.3166 0809687 297.5937  72.8925 11.93870896 20113

Volg SCOUT B DEB in realtime met AllMySat

Download on the App Store